Weather History for KCQX - November, 2013

Change the Weather History Date:

Friday, November 8, 2013

  Actual Average Record
Temperature  
Mean Temperature 44 °F -  
Max Temperature 50 °F 50 °F 64 °F (2005)
Min Temperature 39 °F 38 °F 28 °F (1999)
Degree Days  
Heating Degree Days 20    
Moisture  
Dew Point 27 °F    
Average Humidity 51    
Maximum Humidity 68    
Minimum Humidity 40    
Precipitation  
Precipitation 0.00 in - - ()
Sea Level Pressure  
Sea Level Pressure 29.93 in    
Wind  
Wind Speed 8 mph (WNW)    
Max Wind Speed 14 mph    
Max Gust Speed 25 mph    
Visibility 10 miles    
Events      
Averages and records for this station are not official NWS values.
T = Trace of Precipitation, MM = Missing Value Source: NWS Daily Summary

Daily Weather History Graph

Daily Weather History Graph

Search for Another Location

Airport or City:

Trip Planner

Search our weather history database for the weather conditions in past years. The results will help you decide how hot, cold, wet, or windy it might be!

Date:

Astronomy

Nov. 08, 2013 Rise Set
Actual Time 6:20 AM EST 4:26 PM EST
Civil Twilight 5:51 AM EST 4:55 PM EST
Nautical Twilight 5:18 AM EST 5:28 PM EST
Astronomical Twilight 4:45 AM EST 6:01 PM EST
Moon 11:14 AM EST (11/8) 9:43 PM EST (11/8)
Length of Visible Light 11h 04m
Length of Day
10h 05m
Waxing Crescent, 33% of the Moon is Illuminated
Nov 8
Waxing Crescent
Nov 10
First Quarter
Nov 17
Full
Nov 25
Last Quarter
Dec 2
New

Hourly Weather History & Observations

Time (EST) Temp. Windchill Dew Point Humidity Pressure Visibility Wind Dir Wind Speed Gust Speed Precip Events Conditions
12:52 AM 46.0 °F 43.1 °F 36.0 °F 68% 29.81 in 10.0 mi Variable 5.8 mph - N/A   Overcast
1:52 AM 46.0 °F 42.5 °F 33.1 °F 61% 29.82 in 10.0 mi NNW 6.9 mph - N/A   Overcast
2:52 AM 45.0 °F 41.2 °F 30.9 °F 58% 29.83 in 10.0 mi NW 6.9 mph - N/A   Mostly Cloudy
3:52 AM 43.0 °F 38.2 °F 30.0 °F 60% 29.83 in 10.0 mi WNW 8.1 mph - N/A   Clear
4:52 AM 41.0 °F 38.0 °F 30.9 °F 67% 29.86 in 10.0 mi Variable 4.6 mph - N/A   Clear
5:52 AM 39.9 °F 33.9 °F 28.0 °F 63% 29.87 in 10.0 mi West 9.2 mph 18.4 mph N/A   Clear
6:52 AM 39.9 °F 33.9 °F 25.0 °F 55% 29.91 in 10.0 mi WNW 9.2 mph 16.1 mph N/A   Clear
7:52 AM 42.1 °F 36.1 °F 23.0 °F 47% 29.93 in 10.0 mi WNW 10.4 mph 20.7 mph N/A   Clear
8:52 AM 44.1 °F 38.6 °F 23.0 °F 43% 29.94 in 10.0 mi WNW 10.4 mph 18.4 mph N/A   Clear
9:52 AM 45.0 °F 39.7 °F 25.0 °F 46% 29.94 in 10.0 mi WNW 10.4 mph 19.6 mph N/A   Clear
10:52 AM 48.0 °F - 27.0 °F 44% 29.91 in 10.0 mi NW 10.4 mph 19.6 mph N/A   Clear
11:52 AM 48.9 °F - 30.0 °F 48% 29.89 in 10.0 mi WNW 9.2 mph 16.1 mph N/A   Clear
12:52 PM 50.0 °F - 28.9 °F 44% 29.88 in 10.0 mi West 9.2 mph 18.4 mph N/A   Partly Cloudy
1:52 PM 48.0 °F - 28.9 °F 48% 29.89 in 10.0 mi Variable 5.8 mph - N/A   Mostly Cloudy
2:52 PM 46.9 °F - 28.9 °F 50% 29.90 in 10.0 mi West 6.9 mph - N/A   Scattered Clouds
3:52 PM 46.9 °F - 26.1 °F 44% 29.91 in 10.0 mi West 9.2 mph 18.4 mph N/A   Mostly Cloudy
4:52 PM 46.0 °F 41.0 °F 24.1 °F 42% 29.94 in 10.0 mi West 10.4 mph 25.3 mph N/A   Mostly Cloudy
5:52 PM 46.0 °F 39.9 °F 23.0 °F 40% 29.97 in 10.0 mi WNW 13.8 mph 24.2 mph 0.00 in   Mostly Cloudy
6:52 PM 44.1 °F - 24.1 °F 45% 29.99 in 10.0 mi North - - N/A   Mostly Cloudy
7:52 PM 43.0 °F 36.4 °F 24.1 °F 47% 30.02 in 10.0 mi WNW 12.7 mph 21.9 mph N/A   Partly Cloudy
8:52 PM 42.1 °F 36.6 °F 25.0 °F 51% 30.05 in 10.0 mi NW 9.2 mph 16.1 mph N/A   Mostly Cloudy
9:52 PM 41.0 °F 33.5 °F 23.0 °F 49% 30.07 in 10.0 mi WNW 13.8 mph 20.7 mph N/A   Clear
10:52 PM 39.9 °F 34.5 °F 21.0 °F 47% 30.07 in 10.0 mi WNW 8.1 mph 19.6 mph N/A   Partly Cloudy
11:52 PM 39.9 °F 35.1 °F 21.9 °F 49% 30.09 in 10.0 mi Variable 6.9 mph - N/A   Mostly Cloudy